| time (UTC) | temp F | wind direction | speed knots | gust knots | rain 1hr in | rain 24hr in | rain mn in | humidity % | barometer mb |
| 20260507070021 | 55 | 295 | 0.0 | 0.9 | 0.00 | 0.08 | 0.00 | 71 | 1006.1 |
| 20260507064525 | 55 | 47 | 0.0 | 1.7 | 0.00 | 0.08 | 0.00 | 69 | 1006.0 |
| 20260507063028 | 56 | 288 | 0.0 | 1.7 | 0.00 | 0.08 | 0.00 | 69 | 1006.2 |
| 20260507061529 | 56 | 256 | 0.0 | 0.9 | 0.00 | 0.08 | 0.00 | 63 | 1006.1 |
| 20260507060016 | 57 | 37 | 0.0 | 1.7 | 0.00 | 0.08 | 0.00 | 62 | 1006.1 |
| 20260507054520 | 57 | 131 | 0.0 | 4.3 | 0.00 | 0.08 | 0.00 | 62 | 1006.2 |
| 20260507053028 | 57 | 300 | 0.0 | 3.5 | 0.00 | 0.08 | 0.00 | 61 | 1006.5 |
| 20260507051528 | 58 | 249 | 0.0 | 0.0 | 0.00 | 0.08 | 0.00 | 55 | 1006.3 |
| 20260507050031 | 58 | 257 | 0.0 | 4.3 | 0.00 | 0.08 | 0.00 | 55 | 1006.1 |
| 20260507044517 | 59 | 53 | 0.9 | 4.3 | 0.00 | 0.08 | 0.00 | 26 | 1006.3 |
| 20260507043010 | 59 | 244 | 0.0 | 0.0 | 0.00 | 0.08 | 0.00 | 8 | 1006.1 |
| 20260507041504 | 59 | 290 | 0.0 | 2.6 | 0.00 | 0.08 | 0.00 | 100 | 1006.1 |
| 20260507040008 | 60 | 234 | 0.0 | 0.0 | 0.00 | 0.08 | 0.00 | 100 | 1006.4 |
| 20260507034522 | 60 | 196 | 0.0 | 1.7 | 0.00 | 0.08 | 0.08 | 100 | 1006.4 |
| 20260507033020 | 60 | 248 | 1.7 | 8.7 | 0.00 | 0.08 | 0.08 | 100 | 1006.0 |
| 20260507031505 | 60 | 217 | 0.9 | 6.1 | 0.00 | 0.08 | 0.08 | 1 | 1006.0 |
| 20260507030007 | 60 | 239 | 1.7 | 9.6 | 0.00 | 0.08 | 0.08 | 2 | 1005.8 |
| 20260507024514 | 60 | 203 | 2.6 | 6.1 | 0.00 | 0.08 | 0.08 | 100 | 1005.6 |
| 20260507023018 | 59 | 217 | 0.9 | 8.7 | 0.00 | 0.08 | 0.08 | 100 | 1006.1 |
| 20260507021523 | 59 | 219 | 0.9 | 11.3 | 0.00 | 0.08 | 0.08 | 100 | 1005.9 |
| 20260507020006 | 59 | 225 | 3.5 | 8.7 | 0.00 | 0.08 | 0.08 | 100 | 1005.9 |
| 20260507014506 | 59 | 210 | 4.3 | 10.4 | 0.00 | 0.08 | 0.08 | 100 | 1005.9 |
| 20260507013013 | 59 | 217 | 3.5 | 10.4 | 0.00 | 0.08 | 0.08 | 100 | 1006.1 |
| 20260507011532 | 59 | 200 | 2.6 | 10.4 | 0.00 | 0.08 | 0.08 | 100 | 1006.2 |
| 20260507010024 | 59 | 213 | 3.5 | 9.6 | 0.00 | 0.08 | 0.08 | 100 | 1006.4 |
| 20260507004506 | 59 | 232 | 2.6 | 8.7 | 0.00 | 0.08 | 0.08 | 100 | 1006.4 |
| 20260507003008 | 58 | 252 | 3.5 | 9.6 | 0.01 | 0.08 | 0.08 | 100 | 1006.3 |
| 20260507001538 | 59 | 243 | 0.9 | 10.4 | 0.02 | 0.08 | 0.08 | 100 | 1006.1 |
| 20260507000023 | 59 | 229 | 2.6 | 11.3 | 0.03 | 0.08 | 0.08 | 1 | 1005.8 |
| 20260506234524 | 59 | 229 | 2.6 | 9.6 | 0.03 | 0.08 | 0.08 | 3 | 1005.9 |
| 20260506233009 | 59 | 243 | 1.7 | 8.7 | 0.02 | 0.07 | 0.07 | 6 | 1005.8 |
| 20260506231511 | 60 | 196 | 3.5 | 13.0 | 0.01 | 0.06 | 0.06 | 12 | 1005.9 |
| 20260506230017 | 60 | 250 | 0.9 | 8.7 | 0.00 | 0.05 | 0.05 | 16 | 1005.8 |
| 20260506224522 | 60 | 246 | 2.6 | 7.0 | 0.00 | 0.05 | 0.05 | 13 | 1005.9 |
| 20260506223031 | 60 | 226 | 3.5 | 10.4 | 0.01 | 0.05 | 0.05 | 11 | 1006.0 |
| 20260506221508 | 60 | 224 | 0.9 | 9.6 | 0.01 | 0.05 | 0.05 | 11 | 1006.3 |
| 20260506220012 | 60 | 162 | 1.7 | 7.8 | 0.01 | 0.05 | 0.05 | 15 | 1006.4 |
| 20260506214517 | 61 | 192 | 1.7 | 11.3 | 0.01 | 0.05 | 0.05 | 27 | 1006.5 |
| 20260506213020 | 61 | 198 | 2.6 | 11.3 | 0.00 | 0.04 | 0.04 | 43 | 1006.8 |
| 20260506211526 | 62 | 203 | 6.1 | 12.2 | 0.01 | 0.04 | 0.04 | 48 | 1006.7 |
| 20260506210009 | 62 | 168 | 4.3 | 9.6 | 0.01 | 0.04 | 0.04 | 50 | 1006.8 |
| 20260506204514 | 61 | 109 | 4.3 | 13.9 | 0.02 | 0.04 | 0.04 | 49 | 1006.8 |
| 20260506203022 | 62 | 172 | 3.5 | 13.0 | 0.02 | 0.04 | 0.04 | 58 | 1007.0 |
| 20260506201526 | 62 | 231 | 1.7 | 9.6 | 0.02 | 0.03 | 0.03 | 58 | 1006.8 |
| 20260506200032 | 63 | 185 | 3.5 | 8.7 | 0.03 | 0.03 | 0.03 | 65 | 1006.7 |
| 20260506194516 | 64 | 155 | 3.5 | 7.8 | 0.02 | 0.02 | 0.02 | 70 | 1006.8 |
| 20260506193029 | 65 | 194 | 3.5 | 9.6 | 0.02 | 0.02 | 0.02 | 72 | 1007.0 |
| 20260506191521 | 67 | 228 | 1.7 | 6.1 | 0.01 | 0.01 | 0.01 | 72 | 1007.0 |
| 20260506190031 | 68 | 212 | 3.5 | 7.8 | 0.00 | 0.00 | 0.00 | 67 | 1006.9 |
| 20260506184537 | 69 | 212 | 3.5 | 7.8 | 0.00 | 0.00 | 0.00 | 65 | 1006.9 |
| 20260506183015 | 70 | 161 | 3.5 | 14.8 | 0.00 | 0.00 | 0.00 | 61 | 1007.1 |
| 20260506181525 | 71 | 210 | 4.3 | 14.8 | 0.00 | 0.00 | 0.00 | 58 | 1007.2 |
| 20260506180025 | 72 | 260 | 4.3 | 21.7 | 0.00 | 0.00 | 0.00 | 55 | 1007.3 |
| 20260506174527 | 73 | 172 | 2.6 | 13.9 | 0.00 | 0.00 | 0.00 | 55 | 1007.4 |
| 20260506173028 | 73 | 147 | 3.5 | 17.4 | 0.00 | 0.00 | 0.00 | 57 | 1007.4 |
| 20260506171518 | 72 | 203 | 7.0 | 13.9 | 0.00 | 0.00 | 0.00 | 57 | 1007.6 |
| 20260506170028 | 72 | 116 | 2.6 | 15.6 | 0.00 | 0.00 | 0.00 | 59 | 1007.6 |
| 20260506164542 | 72 | 219 | 4.3 | 13.9 | 0.00 | 0.00 | 0.00 | 58 | 1007.8 |
| 20260506163028 | 72 | 179 | 7.0 | 17.4 | 0.00 | 0.00 | 0.00 | 58 | 1007.9 |
| 20260506161530 | 72 | 198 | 4.3 | 9.6 | 0.00 | 0.00 | 0.00 | 59 | 1008.2 |
| 20260506160020 | 72 | 200 | 3.5 | 13.0 | 0.00 | 0.00 | 0.00 | 58 | 1008.5 |
| 20260506154526 | 72 | 252 | 4.3 | 13.0 | 0.00 | 0.00 | 0.00 | 58 | 1008.7 |
| 20260506153024 | 73 | 274 | 3.5 | 11.3 | 0.00 | 0.00 | 0.00 | 57 | 1008.9 |
| 20260506151533 | 72 | 241 | 5.2 | 13.9 | 0.00 | 0.00 | 0.00 | 58 | 1008.9 |
| 20260506150030 | 72 | 198 | 5.2 | 12.2 | 0.00 | 0.00 | 0.00 | 59 | 1009.1 |
| 20260506144527 | 71 | 197 | 5.2 | 9.6 | 0.00 | 0.00 | 0.00 | 61 | 1008.9 |
| 20260506143024 | 70 | 207 | 5.2 | 15.6 | 0.00 | 0.00 | 0.00 | 62 | 1009.0 |
| 20260506141530 | 70 | 155 | 5.2 | 12.2 | 0.00 | 0.00 | 0.00 | 63 | 1008.8 |
| 20260506140028 | 69 | 240 | 3.5 | 13.0 | 0.00 | 0.00 | 0.00 | 66 | 1009.0 |
| 20260506134530 | 67 | 157 | 5.2 | 11.3 | 0.00 | 0.00 | 0.00 | 68 | 1009.0 |
| 20260506133021 | 66 | 270 | 4.3 | 12.2 | 0.00 | 0.00 | 0.00 | 70 | 1009.6 |
| 20260506131526 | 66 | 174 | 6.1 | 14.8 | 0.00 | 0.00 | 0.00 | 70 | 1009.8 |
| 20260506130030 | 65 | 203 | 1.7 | 7.8 | 0.00 | 0.00 | 0.00 | 71 | 1009.6 |
| 20260506124513 | 64 | 166 | 4.3 | 10.4 | 0.00 | 0.00 | 0.00 | 72 | 1009.8 |
| 20260506123006 | 64 | 225 | 4.3 | 9.6 | 0.00 | 0.00 | 0.00 | 73 | 1010.1 |
| 20260506121508 | 63 | 142 | 3.5 | 13.0 | 0.00 | 0.00 | 0.00 | 73 | 1009.9 |
| 20260506120020 | 62 | 153 | 1.7 | 9.6 | 0.00 | 0.00 | 0.00 | 73 | 1010.2 |
| 20260506114510 | 61 | 191 | 3.5 | 9.6 | 0.00 | 0.00 | 0.00 | 72 | 1010.1 |
| 20260506113017 | 61 | 235 | 0.9 | 11.3 | 0.00 | 0.00 | 0.00 | 71 | 1010.5 |
| 20260506111504 | 61 | 229 | 2.6 | 11.3 | 0.00 | 0.00 | 0.00 | 71 | 1010.3 |
| 20260506110006 | 61 | 239 | 2.6 | 11.3 | 0.00 | 0.00 | 0.00 | 71 | 1010.2 |
| 20260506104513 | 60 | 158 | 1.7 | 7.8 | 0.00 | 0.00 | 0.00 | 70 | 1010.2 |
| 20260506103034 | 60 | 234 | 2.6 | 6.1 | 0.00 | 0.00 | 0.00 | 70 | 1010.3 |
| 20260506101519 | 60 | 157 | 2.6 | 8.7 | 0.00 | 0.00 | 0.00 | 70 | 1010.3 |
| 20260506100005 | 60 | 202 | 5.2 | 10.4 | 0.00 | 0.00 | 0.00 | 71 | 1010.3 |
| 20260506094503 | 60 | 215 | 2.6 | 9.6 | 0.00 | 0.00 | 0.00 | 71 | 1010.0 |
| 20260506093018 | 60 | 182 | 2.6 | 6.1 | 0.00 | 0.00 | 0.00 | 71 | 1010.2 |
| 20260506091519 | 60 | 250 | 1.7 | 6.1 | 0.00 | 0.00 | 0.00 | 72 | 1010.0 |
| 20260506090020 | 61 | 155 | 1.7 | 8.7 | 0.00 | 0.00 | 0.00 | 72 | 1010.1 |
| 20260506084506 | 61 | 250 | 2.6 | 9.6 | 0.00 | 0.00 | 0.00 | 73 | 1010.1 |
| 20260506083010 | 61 | 202 | 2.6 | 11.3 | 0.00 | 0.00 | 0.00 | 73 | 1010.2 |
| 20260506081518 | 62 | 221 | 2.6 | 11.3 | 0.00 | 0.00 | 0.00 | 73 | 1010.0 |
| 20260506073007 | 62 | 219 | 4.3 | 14.8 | 0.00 | 0.00 | 0.00 | 72 | 1010.0 |
| 20260506071516 | 63 | 249 | 5.2 | 12.2 | 0.00 | 0.00 | 0.00 | 72 | 1009.8 |